Location: *
(46.3500°N, 10.9000°E)
Time: 21:28:27
(UTC+00:00)

A-11 Canister half - Pass Details

Date: 22 April 2021
Orbit: 1526 x 1682 km, 47.3° (Epoch: 13 May)

Event Time Altitude Azimuth Distance (km) Brightness Sun altitude
Rises 20:52:32 0° 293° (WNW) 4,940 12.6 -23.1°
Reaches altitude 10° 20:56:06 10° 284° (WNW) 3,948 11.8 -23.4°
Maximum altitude 21:04:43 33° 226° (SW) 2,529 10.0 -24.3°
Enters shadow 21:08:35 26° 189° (S) 2,858 10.0 -24.7°
Drops below altitude 10° 21:13:12 10° 167° (SSE) 3,876 - -25.1°
Sets 21:16:42 0° 158° (SSE) 4,839 - -25.5°
